Blacksburg, VA

10:40 PM EDT on March 24, 2017 (GMT -0400)
Virginia Tech

Weather History for KBCB - December, 2011

Change the Weather History Date:

Monday, December 26, 2011

  Actual Average Record
Temperature  
Mean Temperature 39 °F 32 °F  
Max Temperature 47 °F 42 °F 64 °F (1964)
Min Temperature 30 °F 22 °F -8 °F (1985)
Degree Days  
Heating Degree Days 26 33  
Month to date heating degree days 650 800  
Since 1 July heating degree days 1682 1980  
Cooling Degree Days 0 0  
Month to date cooling degree days 0 0  
Year to date cooling degree days 870 573  
Moisture  
Dew Point 28 °F    
Average Humidity 61    
Maximum Humidity 76    
Minimum Humidity 46    
Precipitation  
Precipitation 0.00 in 0.09 in 1.01 in (2012)
Month to date precipitation 3.39 2.49  
Year to date precipitation 43.45 40.43  
Snow  
Snow 0.00 in - - ()
Month to date snowfall T  
Since 1 July snowfall T  
Snow Depth 0.00 in    
Sea Level Pressure  
Sea Level Pressure 30.28 in    
Wind  
Wind Speed 6 mph (WNW)    
Max Wind Speed 18 mph    
Max Gust Speed 25 mph    
Visibility 10 miles    
Events      
T = Trace of Precipitation, MM = Missing Value Source: NWS Daily Summary

Daily Weather History Graph

Daily Weather History Graph

Search for Another Location

Airport or City:

Trip Planner

Search our weather history database for the weather conditions in past years. The results will help you decide how hot, cold, wet, or windy it might be!

Date:

Astronomy

Dec. 26, 2011 Rise Set
Actual Time 7:33 AM EST 5:10 PM EST
Civil Twilight 7:04 AM EST 5:39 PM EST
Nautical Twilight 6:32 AM EST 6:12 PM EST
Astronomical Twilight 6:00 AM EST 6:44 PM EST
Moon 8:55 AM EST (12/26) 7:34 PM EST (12/26)
Length of Visible Light 10h 34m
Length of Day
9h 36m
Waxing Crescent, 5% of the Moon is Illuminated
Dec 26
Waxing Crescent
Jan 1
First Quarter
Jan 9
Full
Jan 16
Last Quarter
Jan 23
New

Hourly Weather History & Observations

Time (EST) Temp. Windchill Dew Point Humidity Pressure Visibility Wind Dir Wind Speed Gust Speed Precip Events Conditions
12:15 AM 42.8 °F 38.0 °F 26.6 °F 53% 30.17 in 10.0 mi West 8.1 mph 19.6 mph N/A   Clear
12:35 AM 41.0 °F 36.4 °F 26.6 °F 57% 30.17 in 10.0 mi WNW 6.9 mph 20.7 mph N/A   Clear
12:55 AM 41.0 °F 34.7 °F 26.6 °F 57% 30.17 in 10.0 mi West 10.4 mph 20.7 mph N/A   Clear
1:15 AM 41.0 °F 34.3 °F 26.6 °F 57% 30.18 in 10.0 mi WNW 11.5 mph 18.4 mph N/A   Scattered Clouds
1:35 AM 39.2 °F 34.2 °F 26.6 °F 61% 30.18 in 10.0 mi WNW 6.9 mph - N/A   Scattered Clouds
1:55 AM 39.2 °F 33.0 °F 26.6 °F 61% 30.19 in 10.0 mi WNW 9.2 mph 16.1 mph N/A   Mostly Cloudy
2:15 AM 39.2 °F 35.0 °F 28.4 °F 65% 30.21 in 10.0 mi West 5.8 mph - N/A   Scattered Clouds
2:35 AM 39.2 °F 30.5 °F 28.4 °F 65% 30.22 in 10.0 mi NW 16.1 mph 24.2 mph N/A   Scattered Clouds
2:55 AM 37.4 °F 32.1 °F 28.4 °F 70% 30.22 in 10.0 mi WNW 6.9 mph 16.1 mph N/A   Mostly Cloudy
3:15 AM 37.4 °F 27.8 °F 28.4 °F 70% 30.23 in 10.0 mi NW 17.3 mph 25.3 mph N/A   Mostly Cloudy
3:35 AM 37.4 °F 28.9 °F 26.6 °F 65% 30.21 in 10.0 mi WNW 13.8 mph 19.6 mph N/A   Scattered Clouds
3:55 AM 35.6 °F 28.0 °F 26.6 °F 70% 30.22 in 10.0 mi WNW 10.4 mph 17.3 mph N/A   Clear
4:15 AM 35.6 °F 31.7 °F 26.6 °F 70% 30.22 in 10.0 mi West 4.6 mph - N/A   Clear
4:35 AM 35.6 °F 32.8 °F 26.6 °F 70% 30.22 in 10.0 mi WNW 3.5 mph - N/A   Scattered Clouds
4:55 AM 35.6 °F 31.7 °F 26.6 °F 70% 30.22 in 10.0 mi West 4.6 mph - N/A   Scattered Clouds
5:15 AM 35.6 °F 28.6 °F 26.6 °F 70% 30.23 in 10.0 mi WSW 9.2 mph - N/A   Clear
5:35 AM 33.8 °F 26.4 °F 26.6 °F 75% 30.24 in 10.0 mi WNW 9.2 mph - N/A   Clear
5:55 AM 35.6 °F 29.2 °F 26.6 °F 70% 30.25 in 10.0 mi West 8.1 mph 16.1 mph N/A   Clear
6:15 AM 35.6 °F 28.0 °F 26.6 °F 70% 30.26 in 10.0 mi WNW 10.4 mph 18.4 mph N/A   Clear
6:35 AM 33.8 °F 24.3 °F 24.8 °F 70% 30.26 in 10.0 mi WNW 13.8 mph 19.6 mph N/A   Clear
6:55 AM 33.8 °F 24.3 °F 26.6 °F 75% 30.27 in 10.0 mi WNW 13.8 mph 21.9 mph N/A   Clear
7:15 AM 33.8 °F 25.3 °F 26.6 °F 75% 30.29 in 10.0 mi WNW 11.5 mph - N/A   Clear
7:35 AM 33.8 °F 24.8 °F 24.8 °F 70% 30.31 in 10.0 mi NNW 12.7 mph - N/A   Clear
7:55 AM 33.8 °F 27.7 °F 24.8 °F 70% 30.31 in 10.0 mi WNW 6.9 mph - N/A   Clear
8:15 AM 33.8 °F 24.3 °F 26.6 °F 75% 30.32 in 10.0 mi NW 13.8 mph - N/A   Clear
8:35 AM 35.6 °F 32.8 °F 26.6 °F 70% 30.34 in 10.0 mi NNW 3.5 mph - N/A   Clear
8:55 AM 35.6 °F 25.2 °F 26.6 °F 70% 30.34 in 10.0 mi NW 18.4 mph - N/A   Clear
9:15 AM 35.6 °F 28.0 °F 26.6 °F 70% 30.36 in 10.0 mi WNW 10.4 mph - N/A   Clear
9:35 AM 37.4 °F 33.8 °F 26.6 °F 65% 30.37 in 10.0 mi NW 4.6 mph - N/A   Clear
9:55 AM 37.4 °F 32.1 °F 26.6 °F 65% 30.39 in 10.0 mi West 6.9 mph - N/A   Scattered Clouds
10:15 AM 39.2 °F 33.6 °F 26.6 °F 61% 30.40 in 10.0 mi West 8.1 mph - N/A   Scattered Clouds
10:35 AM 39.2 °F 35.0 °F 26.6 °F 61% 30.40 in 10.0 mi West 5.8 mph - N/A   Clear
10:55 AM 39.2 °F 33.6 °F 28.4 °F 65% 30.40 in 10.0 mi West 8.1 mph - N/A   Clear
11:15 AM 39.2 °F 35.9 °F 28.4 °F 65% 30.38 in 10.0 mi NW 4.6 mph - N/A   Clear
11:35 AM 39.2 °F 37.0 °F 26.6 °F 61% 30.36 in 10.0 mi West 3.5 mph - N/A   Clear
11:55 AM 41.0 °F 38.0 °F 28.4 °F 61% 30.35 in 10.0 mi WNW 4.6 mph - N/A   Clear
12:15 PM 41.0 °F 35.8 °F 28.4 °F 61% 30.32 in 10.0 mi WNW 8.1 mph - N/A   Clear
12:35 PM 42.8 °F 40.1 °F 28.4 °F 57% 30.32 in 10.0 mi WNW 4.6 mph - N/A   Clear
12:55 PM 44.6 °F 43.1 °F 28.4 °F 53% 30.31 in 10.0 mi WSW 3.5 mph - N/A   Clear
1:15 PM 44.6 °F - 28.4 °F 53% 30.31 in 10.0 mi Calm Calm - N/A   Clear
1:35 PM 44.6 °F 42.2 °F 28.4 °F 53% 30.29 in 10.0 mi West 4.6 mph - N/A   Clear
1:55 PM 46.4 °F 45.2 °F 28.4 °F 50% 30.28 in 10.0 mi WSW 3.5 mph - N/A   Clear
2:15 PM 46.4 °F - 28.4 °F 50% 30.28 in 10.0 mi Calm Calm - N/A   Clear
2:35 PM 46.4 °F - 28.4 °F 50% 30.27 in 10.0 mi Calm Calm - N/A   Clear
2:55 PM 48.2 °F - 28.4 °F 46% 30.28 in 10.0 mi Calm Calm - N/A   Clear
3:15 PM 46.4 °F - 26.6 °F 46% 30.27 in 10.0 mi Calm Calm - N/A   Clear
3:35 PM 48.2 °F - 28.4 °F 46% 30.27 in 10.0 mi Calm Calm - N/A   Clear
3:55 PM 46.4 °F - 28.4 °F 50% 30.28 in 10.0 mi Calm Calm - N/A   Clear
4:15 PM 44.6 °F - 28.4 °F 53% 30.27 in 10.0 mi Calm Calm - N/A   Clear
4:35 PM 42.8 °F 41.1 °F 30.2 °F 61% 30.27 in 10.0 mi SSE 3.5 mph - N/A   Clear
4:55 PM 44.6 °F - 28.4 °F 53% 30.27 in 10.0 mi Calm Calm - N/A   Clear
5:15 PM 42.8 °F - 28.4 °F 57% 30.27 in 10.0 mi Calm Calm - N/A   Clear
5:35 PM 39.2 °F - 30.2 °F 70% 30.26 in 10.0 mi Calm Calm - N/A   Clear
5:55 PM 39.2 °F - 30.2 °F 70% 30.26 in 10.0 mi Calm Calm - N/A   Clear
6:15 PM 39.2 °F - 30.2 °F 70% 30.26 in 10.0 mi Calm Calm - N/A   Clear
6:35 PM 39.2 °F 37.0 °F 30.2 °F 70% 30.26 in 10.0 mi East 3.5 mph - N/A   Clear
6:55 PM 37.4 °F 34.9 °F 30.2 °F 75% 30.27 in 10.0 mi SE 3.5 mph - N/A   Clear
7:15 PM 39.2 °F 35.9 °F 28.4 °F 65% 30.27 in 10.0 mi ESE 4.6 mph - N/A   Clear
7:35 PM 41.0 °F 37.1 °F 28.4 °F 61% 30.27 in 10.0 mi ESE 5.8 mph - N/A   Clear
7:55 PM 41.0 °F 39.0 °F 28.4 °F 61% 30.27 in 10.0 mi ESE 3.5 mph - N/A   Clear
8:15 PM 41.0 °F - 28.4 °F 61% 30.27 in 10.0 mi Calm Calm - N/A   Clear
8:35 PM 39.2 °F 37.0 °F 28.4 °F 65% 30.27 in 10.0 mi ESE 3.5 mph - N/A   Clear
8:55 PM 41.0 °F 39.0 °F 28.4 °F 61% 30.27 in 10.0 mi SE 3.5 mph - N/A   Clear
9:15 PM 41.0 °F - 28.4 °F 61% 30.25 in 10.0 mi Calm Calm - N/A   Clear
9:35 PM 41.0 °F - 28.4 °F 61% 30.25 in 10.0 mi Calm Calm - N/A   Clear
9:55 PM 39.2 °F 37.0 °F 28.4 °F 65% 30.24 in 10.0 mi ESE 3.5 mph - N/A   Clear
10:15 PM 39.2 °F 37.0 °F 28.4 °F 65% 30.23 in 10.0 mi SE 3.5 mph - N/A   Clear
10:35 PM 37.4 °F - 28.4 °F 70% 30.22 in 10.0 mi Calm Calm - N/A   Clear
10:55 PM 35.6 °F 32.8 °F 28.4 °F 75% 30.21 in 10.0 mi East 3.5 mph - N/A   Clear
11:15 PM 37.4 °F 33.8 °F 28.4 °F 70% 30.20 in 10.0 mi ESE 4.6 mph - N/A   Clear
11:35 PM 37.4 °F 34.9 °F 28.4 °F 70% 30.20 in 10.0 mi ESE 3.5 mph - N/A   Clear
11:55 PM 35.6 °F 31.7 °F 28.4 °F 75% 30.19 in 10.0 mi East 4.6 mph - N/A   Clear